Starlink 31899

operational
NORAD ID: 59850 Int'l Des: 2024-097 Owner: SPXS Country: US Constellation: starlink
LEOCIRCULAR

Starlink 31899について

説明を読み込み中...

リアルタイム位置

3D地球を読み込み中...

次回通過

高度履歴

Altitude vs Time

uPlot chart will show altitude changes over time

軌道要素

1 59850U 24097R 25305.24489018 .00000216 00000-0 17377-4 0 9998
2 59850 43.0064 279.6799 0001463 272.2388 87.8296 15.27568913 82277
Epoch: Nov 1, 2025 • Age: 26 hours

現在のステータス

高度 495.4 km
速度 7.62 km/s
衛星直下点 -43.09°S, 23.11°E
打ち上げ日 May 23, 2024
運用期間 1.4 years
タイプ internet

技術仕様

分類 Payload
質量 730.00 kg
乾燥質量 700.00 kg
総質量 730.00 kg
長さ 0.30 m
直径 4.10 m
スパン 29.00 m
形状 Box + pan
製造者 SPXS
バスタイプ Starlink V2M
フェーズステータス In Orbit
所有者/国 SPXS/US

大規模コンステレーション

Loading constellations...